"TOA5","AWS1","CR1000","7964","CR1000.Std.14","CPU:AWS1_114.CR1","64363","TBL110"
"TIMESTAMP","RECORD","Wind_spd_WVc(1)","Wind_spd_WVc(2)","Air_Temp_Avg","Humidity_Avg","SW_upper_Wm2_Avg","Rain_Tot","Press_Avg","Issui_Tot","Depth_cm","SR50A_Raw","Quality","Ground_Temp_Avg(1)","Ground_Temp_Avg(2)","SW_lower_Wm2_Avg","Albedo_Avg","SWC_per(1)","SWC_per(2)","Period(1)","Period(2)"
"TS","RN","","","","","","","","","","","","","","","","","","",""
"","","WVc","WVc","Avg","Avg","Avg","Tot","Avg","Tot","Smp","Smp","Smp","Avg","Avg","Avg","Avg","Smp","Smp","Smp","Smp"
"2016-12-12 00:00:00",265885,0.558,255.8,-6.849,76.18,0,0,868.6016,0,8.94,3.127,194,3.901,4.876,0.07207511,0,51.6,59.2,33.69,35.5
"2016-12-12 00:10:00",265886,0.358,339.4,-6.78,74.53,0,0,868.6901,0,8.5,3.137,191,3.912,4.876,0.1213897,0,51.6,59.14,33.69,35.48
"2016-12-12 00:20:00",265887,0.271,0.847,-7.122,76,0,0,868.6943,0,8.58,3.136,200,3.923,4.877,0.01896713,0,51.6,59.14,33.69,35.48
"2016-12-12 00:30:00",265888,0.176,5.296,-7.195,75.85,0,0,868.7386,0,8.58,3.135,173,3.91,4.877,0,0,51.6,59.14,33.69,35.48
"2016-12-12 00:40:00",265889,0.515,278.9,-6.832,73.5,0,0,868.8124,0,8.26,3.14,182,3.917,4.877,0.3983098,0,51.6,59.14,33.69,35.48
"2016-12-12 00:50:00",265890,0.099,163.9,-7.576,77.39,0,0,868.6943,0,8.36,3.139,183,3.89,4.877,0,0,51.6,59.14,33.69,35.48
"2016-12-12 01:00:00",265891,0.203,82.5,-7.661,77.77,0,0,868.7332,0,8.66,3.138,193,3.859,4.878,0,0,51.6,59.14,33.69,35.48
"2016-12-12 01:10:00",265892,0.112,142.1,-7.857,78.65,0,0,868.7234,0,8.35,3.139,191,3.837,4.88,0.08725086,0,51.6,59.14,33.69,35.48
"2016-12-12 01:20:00",265893,0.176,135.5,-7.359,74.74,0,0,868.6948,0,8.52,3.137,198,3.837,4.88,0.508337,0,51.6,59.14,33.69,35.48
"2016-12-12 01:30:00",265894,0.421,70.67,-6.961,72.28,0,0,868.6945,0,8.84,3.13,187,3.847,4.871,0.7359482,0,51.6,59.14,33.69,35.48
"2016-12-12 01:40:00",265895,0.605,20.73,-6.552,69.01,0,0,868.6898,0,8.89,3.132,178,3.844,4.886,1.03944,0,51.66,59.14,33.7,35.48
"2016-12-12 01:50:00",265896,0.747,28.22,-6.934,71.5,0,0,868.668,0,8.5,3.133,178,3.856,4.903,0.1631363,0,51.6,59.14,33.69,35.48
"2016-12-12 02:00:00",265897,1.148,30.58,-6.555,69.6,0,0,868.5638,0,8.81,3.13,197,3.888,4.925,0.4439214,0,51.66,59.14,33.7,35.48
"2016-12-12 02:10:00",265898,1.249,25.34,-6.571,70.21,0,0,868.6736,0,8.64,3.132,178,3.9,4.937,0.24663,0,51.6,59.14,33.69,35.48
"2016-12-12 02:20:00",265899,1.108,12.72,-6.787,70.96,0,0,868.5147,0,8.72,3.133,181,3.908,4.937,0.1176238,0,51.6,59.14,33.69,35.48
"2016-12-12 02:30:00",265900,0.725,0.724,-6.685,68.27,0,0,868.4774,0,9.16,3.124,186,3.903,4.937,0.1479773,0,51.6,59.14,33.69,35.48
"2016-12-12 02:40:00",265901,0.702,9.42,-5.698,55.72,0,0,868.4906,0,8.03,3.124,194,3.914,4.938,1.081383,0,51.6,59.14,33.69,35.48
"2016-12-12 02:50:00",265902,0.594,339,-4.199,42.19,0,0,868.2944,0,9.05,3.111,194,3.952,4.943,2.344927,0,51.6,59.14,33.69,35.48
"2016-12-12 03:00:00",265903,0.474,326,-4.341,44.65,0,0,868.3569,0,7.91,3.126,190,3.961,4.94,1.032062,0,51.6,59.14,33.69,35.48
"2016-12-12 03:10:00",265904,0.373,321.8,-6.234,65.17,0.01574011,0,868.3206,0,7.888,3.144,186,3.95,4.93,0.08726906,0,51.6,59.14,33.69,35.48
"2016-12-12 03:20:00",265905,0.271,178.4,-8.06,75.88,0.5036828,0,868.2128,0,8.73,3.139,191,3.89,4.924,0,0,51.66,59.14,33.7,35.48
"2016-12-12 03:30:00",265906,0.178,208.3,-7.832,75.06,0,0,868.3785,0,8.39,3.142,176,3.812,4.909,0,0,51.66,59.14,33.7,35.48
"2016-12-12 03:40:00",265907,0.046,107.4,-8.12,76.08,0,0,868.5051,0,8.27,3.146,185,3.81,4.879,0,0,51.66,59.14,33.7,35.48
"2016-12-12 03:50:00",265908,0.146,27.34,-8.82,79.69,0,0,868.4385,0,9.18,3.136,186,3.84,4.799,0,0,51.66,59.14,33.7,35.48
"2016-12-12 04:00:00",265909,0.999,20.63,-6.565,62.07,0,0,868.2267,0,9.75,3.111,185,3.827,4.85,2.151273,0,51.6,59.14,33.69,35.48
"2016-12-12 04:10:00",265910,0.281,59.82,-4.248,42.79,0,0,868.2227,0,10.44,3.103,178,3.821,4.917,3.521042,0,51.66,59.14,33.7,35.48
"2016-12-12 04:20:00",265911,0.284,118.7,-5.034,49.21,0,0,868.2203,0,8.2,3.125,180,3.821,4.936,0.7816302,0,51.6,59.14,33.69,35.48
"2016-12-12 04:30:00",265912,0.684,323.6,-3.62,36.01,0,0,868.3219,0,8.15,3.117,185,3.872,4.949,2.61823,0,51.6,59.14,33.69,35.48
"2016-12-12 04:40:00",265913,0.479,18.86,-3.049,32.97,0,0,868.2426,0,7.503,3.124,180,3.952,4.958,2.284353,0,51.6,59.14,33.69,35.48
"2016-12-12 04:50:00",265914,0.507,147.1,-3.991,41.81,0,0,868.2194,0,8.06,3.125,177,3.969,4.95,0.569178,0,51.6,59.14,33.69,35.48
"2016-12-12 05:00:00",265915,0.462,49.37,-4.539,43.93,0,0,868.3915,0,8.61,3.12,186,3.931,4.932,0.09106028,0,51.6,59.14,33.69,35.48
"2016-12-12 05:10:00",265916,0.16,93.5,-4.473,41.94,0,0,868.4863,0,8.47,3.12,176,3.928,4.916,0.05311622,0,51.6,59.14,33.69,35.48
"2016-12-12 05:20:00",265917,0.275,289,-4.736,45.97,0,0,868.6953,0,7.885,3.132,171,3.886,4.905,0.1479612,0,51.6,59.14,33.69,35.48
"2016-12-12 05:30:00",265918,0.508,50.09,-4.765,43.73,0,0,868.7307,0,7.789,3.121,172,3.867,4.892,0.5880063,0,51.6,59.14,33.69,35.48
"2016-12-12 05:40:00",265919,0.624,14.11,-2.848,29.71,0,0,868.7677,0,7.048,3.122,176,3.906,4.883,2.746502,0,51.6,59.14,33.69,35.48
"2016-12-12 05:50:00",265920,0.298,56.35,-3.328,34.9,0,0,868.9183,0,8.24,3.118,171,3.904,4.877,0.6486826,0,51.6,59.14,33.69,35.48
"2016-12-12 06:00:00",265921,0.299,333.4,-4.72,49.06,0,0,869.0318,0,8.27,3.133,180,3.906,4.877,0.02276066,0,51.6,59.14,33.69,35.48
"2016-12-12 06:10:00",265922,0.277,180.6,-6.618,62.03,0,0,869.1498,0,8.55,3.134,184,3.866,4.877,0,0,51.6,59.14,33.69,35.48
"2016-12-12 06:20:00",265923,0.142,188.9,-6.61,59.8,0,0,869.2004,0,8.64,3.13,171,3.827,4.877,0,0,51.6,59.14,33.69,35.48
"2016-12-12 06:30:00",265924,0.132,88.6,-5.452,47.57,0,0,869.2004,0,8.56,3.123,184,3.77,4.877,0.7245449,0,51.6,59.14,33.69,35.48
"2016-12-12 06:40:00",265925,0.34,40.45,-4.847,45.77,0,0,869.329,0,8.37,3.126,171,3.771,4.874,1.07354,0,51.6,59.14,33.69,35.48
"2016-12-12 06:50:00",265926,0.09,328.5,-5.861,59.34,0,0,869.5062,0,8.37,3.132,171,3.797,4.877,1.0394,0,51.6,59.14,33.69,35.48
"2016-12-12 07:00:00",265927,0.255,348.7,-6.455,62.14,0,0,869.7971,0,8.69,3.129,176,3.771,4.867,2.10156,0,51.6,59.14,33.69,35.48
"2016-12-12 07:10:00",265928,0.279,302.2,-6.419,62.94,0.1770442,0,869.9826,0,8.4,3.135,175,3.754,4.877,5.026293,4.214,51.66,59.14,33.7,35.48
"2016-12-12 07:20:00",265929,0.101,201.6,-7.284,67.4,2.065516,0,870.0775,0,8.46,3.138,181,3.759,4.857,6.304679,3.139,51.6,59.14,33.69,35.48
"2016-12-12 07:30:00",265930,0.447,189.7,-7.349,66.35,2.986161,0,870.2125,0,8.45,3.138,185,3.779,4.808,9.711233,3.249,51.6,59.14,33.69,35.48
"2016-12-12 07:40:00",265931,0.517,185.8,-7.158,64.27,3.686531,0,870.1874,0,8.7,3.133,176,3.792,4.794,12.97759,3.54,51.6,59.14,33.69,35.48
"2016-12-12 07:50:00",265932,0.483,194.9,-6.655,59.54,9.368091,0,870.2307,0,8.69,3.13,171,3.8,4.821,29.23367,3.168,51.6,59.14,33.69,35.48
"2016-12-12 08:00:00",265933,0.598,184.8,-6.052,59.97,9.989853,0,870.2958,0,8.71,3.126,176,3.776,4.879,34.15059,3.426,51.6,59.14,33.69,35.48
"2016-12-12 08:10:00",265934,0.097,322.9,-4.356,47.6,11.20561,0,870.5042,0,8.03,3.123,171,3.777,4.893,39.99656,3.568,51.6,59.14,33.69,35.48
"2016-12-12 08:20:00",265935,0.138,197.6,-4.566,60.69,16.83625,0,870.6105,0,8.5,3.121,172,3.855,4.876,54.80794,3.259,51.6,59.14,33.69,35.48
"2016-12-12 08:30:00",265936,0.036,177.5,-4.21,58.51,19.47582,0,870.827,0,8.53,3.117,172,3.88,4.824,61.83595,3.181,51.6,59.14,33.69,35.48
"2016-12-12 08:40:00",265937,0.019,136.9,-3.614,57.11,26.26993,0,870.9812,0,8.36,3.118,171,3.857,4.802,66.12078,2.572,51.6,59.14,33.69,35.48
"2016-12-12 08:50:00",265938,0.213,145.5,-3.523,60.06,34.46481,0,871.1784,0,8.46,3.114,174,3.826,4.838,69.67437,2.29,51.6,59.14,33.69,35.48
"2016-12-12 09:00:00",265939,0.404,175.6,-2.912,57.36,30.29823,0,871.2055,0,8.22,3.111,188,3.802,4.837,64.05596,2.249,51.6,59.14,33.69,35.48
"2016-12-12 09:10:00",265940,0.404,179.9,-1.732,51.03,23.72787,0,871.2941,0,8.28,3.103,187,3.843,4.811,64.16588,2.708,51.66,59.14,33.7,35.48
"2016-12-12 09:20:00",265941,0.348,167.7,-0.944,48.13,29.33426,0,871.3235,0,8.38,3.099,180,3.856,4.863,67.64443,2.351,51.6,59.14,33.69,35.48
"2016-12-12 09:30:00",265942,0.266,162,0.05,41.96,26.39139,0,871.3495,0,7.719,3.1,176,3.905,4.836,65.53529,2.49,51.6,59.14,33.69,35.48
"2016-12-12 09:40:00",265943,0.17,175.4,0.26,36.5,51.37815,0,871.2782,0,8.12,3.095,171,3.882,4.839,95.83318,2.039,51.6,59.14,33.69,35.48
"2016-12-12 09:50:00",265944,0.038,216.9,0.673,37.26,37.19168,0,871.3964,0,7.619,3.101,179,3.829,4.856,101.7155,2.737,51.6,59.14,33.69,35.48
"2016-12-12 10:00:00",265945,0,0,0.135,46.36,38.96428,0,871.422,0,7.931,3.1,184,3.795,4.805,106.1345,2.725,51.66,59.14,33.7,35.48
"2016-12-12 10:10:00",265946,0.231,173.9,0.284,48.33,46.86716,0,871.3073,0,8.52,3.091,188,3.825,4.772,129.7757,2.771,51.6,59.14,33.69,35.48
"2016-12-12 10:20:00",265947,0.668,155.1,1.588,22.18,44.56507,0,871.0577,0.5,8.37,3.084,174,3.798,4.819,128.1947,2.881,51.6,59.14,33.69,35.48
"2016-12-12 10:30:00",265948,0.795,150.3,2.162,14.56,52.3323,0,870.7625,0,8.02,3.088,171,3.796,4.853,143.1535,2.785,51.6,59.14,33.69,35.48
"2016-12-12 10:40:00",265949,0.444,305.5,2.187,10.99,60.47343,0,870.6255,0,8.22,3.085,175,3.795,4.853,153.7446,2.589,51.6,59.08,33.69,35.47
"2016-12-12 10:50:00",265950,0.272,328.5,2.334,14.21,68.00431,0,870.5954,0,7.975,3.088,175,3.81,4.831,144.7326,2.326,51.6,59.14,33.69,35.48
"2016-12-12 11:00:00",265951,0.416,319.8,1.327,38.65,48.60531,0,870.3763,0,8.24,3.092,184,3.796,4.821,152.4285,3.169,51.6,59.14,33.69,35.48
"2016-12-12 11:10:00",265952,0.523,323,0.753,48.07,76.36813,0,870.5418,0,8.43,3.092,193,3.776,4.787,217.4743,2.996,51.6,59.14,33.69,35.48
"2016-12-12 11:20:00",265953,0.612,329.3,0.782,49.37,133.4793,0,870.5348,0,8.12,3.094,180,3.767,4.76,215.4471,1.637,51.6,59.14,33.69,35.48
"2016-12-12 11:30:00",265954,0.593,318.6,1.113,38.83,208.7386,0,870.4321,0,8.06,3.09,171,3.796,4.739,221.3101,1.063,51.6,59.14,33.69,35.48
"2016-12-12 11:40:00",265955,0.516,332,1.628,41.28,93.70066,0,870.3702,0,8.03,3.092,189,3.749,4.748,172.3845,1.965,51.6,59.14,33.69,35.48
"2016-12-12 11:50:00",265956,0.536,311.7,1.379,40.19,60.24096,0,870.2558,0,8.1,3.09,179,3.717,4.758,166.1314,2.752,51.6,59.14,33.69,35.48
"2016-12-12 12:00:00",265957,0.434,312,1.712,38.7,83.29533,0,870.113,0,8.13,3.091,185,3.745,4.749,244.1257,2.982,51.6,59.14,33.69,35.48
"2016-12-12 12:10:00",265958,0.541,350.9,1.562,35.73,166.9478,0,869.9872,0,7.968,3.091,188,3.746,4.735,196.0313,1.327,51.6,59.14,33.69,35.48
"2016-12-12 12:20:00",265959,0.281,328.2,1.79,37.86,215.1746,0,869.9012,0,7.464,3.095,180,3.724,4.712,175.4573,0.821,51.6,59.14,33.69,35.48
"2016-12-12 12:30:00",265960,0.497,326.2,1.766,39.45,156.6902,0,869.8538,0,8.18,3.089,188,3.688,4.677,163.8848,1.055,51.6,59.14,33.69,35.48
"2016-12-12 12:40:00",265961,0.296,321.7,1.675,46.2,134.0146,0,869.8405,0,7.707,3.095,190,3.667,4.662,153.723,1.147,51.6,59.14,33.69,35.48
"2016-12-12 12:50:00",265962,0.375,327.9,1.463,47.35,144.7207,0,869.8507,0,8.37,3.087,181,3.658,4.654,142.213,1.045,51.6,59.08,33.69,35.47
"2016-12-12 13:00:00",265963,0.315,351,1.603,47.92,135.7968,0,869.8455,0,7.467,3.095,189,3.65,4.65,142.1434,1.18,51.6,59.08,33.69,35.47
"2016-12-12 13:10:00",265964,0.386,321.7,1.427,55.17,92.78683,0,869.8729,0,8.11,3.091,189,3.622,4.65,149.925,1.689,51.6,59.14,33.69,35.48
"2016-12-12 13:20:00",265965,0.196,311.9,1.606,55.71,131.361,0,869.8754,0,7.774,3.093,187,3.616,4.659,139.9775,1.091,51.6,59.14,33.69,35.48
"2016-12-12 13:30:00",265966,0.33,313.5,1.348,59.09,74.957,0,869.9175,0,8.25,3.09,189,3.626,4.661,92.91026,1.492,51.6,59.14,33.69,35.48
"2016-12-12 13:40:00",265967,0.351,324.8,1.445,57.36,64.65483,0,869.9255,0,7.797,3.093,189,3.642,4.648,62.99518,1.149,51.55,59.08,33.68,35.47
"2016-12-12 13:50:00",265968,0.252,314.2,1.674,56.66,29.61746,0,869.9325,0,8.04,3.09,180,3.695,4.622,50.20192,1.745,51.6,59.14,33.69,35.48
"2016-12-12 14:00:00",265969,0.326,324,1.648,56.1,28.21909,0,870.0411,0,8.12,3.089,193,3.731,4.65,41.90041,1.527,51.6,59.14,33.69,35.48
"2016-12-12 14:10:00",265970,0.116,321.7,1.799,51.59,43.02464,0,869.9319,0,7.867,3.091,190,3.725,4.652,49.97248,1.223,51.6,59.14,33.69,35.48
"2016-12-12 14:20:00",265971,0.257,182.3,2.001,33.16,28.58492,0,869.9298,0,6.69,3.102,198,3.634,4.653,42.8862,1.535,51.6,59.14,33.69,35.48
"2016-12-12 14:30:00",265972,0.356,152.3,2.159,27.16,23.09041,0,869.9214,0,7.523,3.092,185,3.61,4.67,34.42419,1.497,51.6,59.14,33.69,35.48
"2016-12-12 14:40:00",265973,0.034,233.7,2.104,25.24,27.25652,0,869.9404,0,7.596,3.092,175,3.615,4.694,36.35307,1.339,51.6,59.14,33.69,35.48
"2016-12-12 14:50:00",265974,0.027,149.9,2.12,29.45,34.37033,0,869.934,0,7.572,3.092,186,3.615,4.698,48.15749,1.4,51.55,59.08,33.68,35.47
"2016-12-12 15:00:00",265975,0.202,350.2,2.111,37.59,34.22117,0,870.2205,0,7.84,3.09,186,3.617,4.708,51.9246,1.519,51.55,59.08,33.68,35.47
"2016-12-12 15:10:00",265976,0.117,24.52,1.798,43.34,30.56126,0,870.2184,0,7.765,3.092,193,3.644,4.741,48.65919,1.593,51.6,59.14,33.69,35.48
"2016-12-12 15:20:00",265977,0.126,313.9,1.707,43.41,24.40093,0,870.3258,0,7.07,3.1,194,3.677,4.787,41.53547,1.707,51.6,59.14,33.69,35.48
"2016-12-12 15:30:00",265978,0.235,299.4,1.562,44.92,19.69669,0,870.3511,0,7.711,3.095,192,3.695,4.803,35.41641,1.798,51.6,59.14,33.69,35.48
"2016-12-12 15:40:00",265979,0.001,307.5,1.439,44.54,18.24251,0,870.4816,0,7.457,3.098,184,3.708,4.805,36.18307,2.003,51.55,59.14,33.68,35.48
"2016-12-12 15:50:00",265980,0.01,315.4,1.197,48.66,10.41484,0,870.515,0,7.1,3.104,186,3.758,4.764,23.28323,2.236,51.6,59.14,33.69,35.48
"2016-12-12 16:00:00",265981,0,0,0.679,53.36,7.80034,0,870.6208,0,7.394,3.104,179,3.789,4.692,17.77142,2.29,51.55,59.08,33.68,35.47
"2016-12-12 16:10:00",265982,0.092,156.9,0.178,57.45,2.771796,0,870.6409,0,6.792,3.111,180,3.778,4.671,10.16702,4.626,51.55,59.08,33.68,35.47
"2016-12-12 16:20:00",265983,0.121,149.8,0.24,52.9,0.9671802,0,870.5764,0,7.368,3.105,185,3.728,4.73,6.675663,5.384,51.6,59.14,33.69,35.48
"2016-12-12 16:30:00",265984,0.162,164.8,0.072,46.55,0,0,870.4565,0,7.79,3.102,179,3.69,4.742,2.562605,0,51.6,59.14,33.69,35.48
"2016-12-12 16:40:00",265985,0.348,161.1,-0.157,41.82,0,0,870.4544,0,7.088,3.111,191,3.658,4.742,0.6444422,0,51.6,59.14,33.69,35.48
"2016-12-12 16:50:00",265986,0.116,172,-0.322,37.02,0,0,870.4628,0,7.393,3.105,185,3.662,4.742,0,0,51.6,59.14,33.69,35.48
"2016-12-12 17:00:00",265987,0.061,128.1,0.132,30.7,0,0,870.5345,0,7.537,3.107,190,3.691,4.742,0,0,51.6,59.14,33.69,35.48
"2016-12-12 17:10:00",265988,0.124,162.7,-0.825,42.48,0,0,870.6209,0,7.157,3.114,177,3.702,4.717,0,0,51.6,59.08,33.69,35.47
"2016-12-12 17:20:00",265989,0.163,160,-1.161,45.95,0,0,870.5323,0,7.771,3.11,180,3.708,4.671,0,0,51.6,59.14,33.69,35.48
"2016-12-12 17:30:00",265990,0.176,130.1,-0.896,34.76,0,0,870.5486,0,7.563,3.108,190,3.727,4.709,0,0,51.6,59.08,33.69,35.47
"2016-12-12 17:40:00",265991,0.184,117.5,-0.332,27.35,0,0,870.7187,0,7.903,3.102,188,3.753,4.723,0.00758297,0,51.6,59.08,33.69,35.47
"2016-12-12 17:50:00",265992,0.392,117.6,0.009,26.24,0,0,870.834,0,7.267,3.11,185,3.774,4.731,0.3526421,0,51.55,59.14,33.68,35.48
"2016-12-12 18:00:00",265993,0.554,132.7,-0.185,26.91,0,0,870.8478,0,7.641,3.104,185,3.786,4.743,0.3261154,0,51.55,59.14,33.68,35.48
"2016-12-12 18:10:00",265994,0.472,141.5,0.061,23.15,0,0,870.835,0,8.14,3.098,196,3.791,4.723,0.4209222,0,51.55,59.08,33.68,35.47
"2016-12-12 18:20:00",265995,0.656,147.2,0.269,19.2,0,0,870.8649,0,7.591,3.103,185,3.792,4.714,0.6029472,0,51.6,59.08,33.69,35.47
"2016-12-12 18:30:00",265996,0.731,147.6,0.355,16.58,0,0,870.6521,0,7.346,3.103,188,3.793,4.767,0.5422744,0,51.55,59.08,33.68,35.47
"2016-12-12 18:40:00",265997,0.806,151.9,0.476,15.68,0,0,870.6252,0,7.244,3.105,185,3.793,4.733,0.4816005,0,51.6,59.14,33.69,35.48
"2016-12-12 18:50:00",265998,0.845,153.5,0.558,15.28,0,0,870.6443,0,7.995,3.097,189,3.793,4.71,0.5081455,0,51.55,59.08,33.68,35.47
"2016-12-12 19:00:00",265999,0.799,149.5,0.529,16.69,0,0,870.6296,0,7.144,3.106,189,3.793,4.756,0.4626399,0,51.6,59.14,33.69,35.48
"2016-12-12 19:10:00",266000,0.891,153.3,0.503,17.91,0,0,870.5516,0,7.142,3.107,184,3.793,4.735,0.4095501,0,51.55,59.08,33.68,35.47
"2016-12-12 19:20:00",266001,0.908,153.2,0.497,19.66,0,0,870.5326,0,7.549,3.1,180,3.793,4.748,0.3981737,0,51.6,59.08,33.69,35.47
"2016-12-12 19:30:00",266002,0.747,149.5,0.678,20.63,0,0,870.5958,0,7.498,3.101,190,3.793,4.741,0.4816006,0,51.55,59.08,33.68,35.47
"2016-12-12 19:40:00",266003,0.764,154,0.922,21.71,0,0,870.4715,0,7.226,3.102,183,3.793,4.718,0.6484543,0,51.6,59.08,33.69,35.47
"2016-12-12 19:50:00",266004,0.888,157.1,1.164,25.47,0,0,870.3766,0,7.751,3.097,190,3.793,4.711,0.4891848,0,51.6,59.08,33.69,35.47
"2016-12-12 20:00:00",266005,0.776,141.5,0.941,30.06,0,0,870.4335,0,7.126,3.103,188,3.793,4.723,0.2389042,0,51.55,59.08,33.68,35.47
"2016-12-12 20:10:00",266006,0.714,149.5,0.98,31.97,0,0,870.4335,0,7.177,3.102,182,3.792,4.717,0.2540727,0,51.55,59.08,33.68,35.47
"2016-12-12 20:20:00",266007,0.884,148.5,0.987,36.34,0,0,870.2438,0,7.299,3.102,184,3.791,4.696,0.1971908,0,51.55,59.08,33.68,35.47
"2016-12-12 20:30:00",266008,0.862,156.9,1.163,35.3,0,0,870.1406,0,7.206,3.1,185,3.791,4.696,0.6257015,0,51.6,59.14,33.69,35.48
"2016-12-12 20:40:00",266009,0.72,157,1.538,32.39,0,0,870.3766,0,7.409,3.097,182,3.784,4.687,0.7167127,0,51.55,59.08,33.68,35.47
"2016-12-12 20:50:00",266010,0.865,149.2,1.451,32.88,0,0,870.3429,0,6.905,3.103,183,3.781,4.712,0.5346903,0,51.55,59.14,33.68,35.48
"2016-12-12 21:00:00",266011,0.852,149.7,1.423,32.85,0,0,869.9551,0,6.954,3.103,183,3.77,4.709,0.5612352,0,51.55,59.08,33.68,35.47
"2016-12-12 21:10:00",266012,0.772,147.2,1.47,33.09,0,0,869.6853,0,6.979,3.103,187,3.772,4.686,0.4398871,0,51.55,59.14,33.68,35.48
"2016-12-12 21:20:00",266013,0.707,131.8,0.955,37.71,0,0,869.6705,0,8.1,3.094,190,3.772,4.714,0,0,51.55,59.08,33.68,35.47
"2016-12-12 21:30:00",266014,0.374,157.8,0.679,40.57,0,0,869.8434,0,6.993,3.108,179,3.791,4.677,0,0,51.55,59.14,33.68,35.48
"2016-12-12 21:40:00",266015,0.41,154.3,0.355,41.88,0,0,869.8665,0,8.05,3.097,184,3.793,4.689,0.1971908,0,51.55,59.08,33.68,35.47
"2016-12-12 21:50:00",266016,0.849,147.2,1.188,34.42,0,0,869.9003,0,7.368,3.094,184,3.792,4.679,1.482723,0,51.55,59.08,33.68,35.47
"2016-12-12 22:00:00",266017,0.791,145,2.404,30.33,0,0,870.168,0,6.522,3.1,183,3.759,4.717,1.926402,0,51.55,59.14,33.68,35.48
"2016-12-12 22:10:00",266018,0.63,142.8,2.263,34.57,0,0,870.1279,0,7.672,3.09,180,3.75,4.739,0.8873585,0,51.55,59.14,33.68,35.48
"2016-12-12 22:20:00",266019,1.056,151.7,2.367,40.15,0,0,870.13,0,6.665,3.101,184,3.748,4.744,0.8380607,0,51.55,59.08,33.68,35.47
"2016-12-12 22:30:00",266020,0.898,161.5,2.448,47.58,0,0,870.1216,0,6.771,3.098,187,3.731,4.746,0.841853,0,51.55,59.08,33.68,35.47
"2016-12-12 22:40:00",266021,0.766,145,2.485,51.77,0,0,870.1194,0,6.716,3.1,187,3.717,4.752,0.6901677,0,51.55,59.08,33.68,35.47
"2016-12-12 22:50:00",266022,0.836,152.4,2.477,56.2,0,0,870.1172,0,6.771,3.098,179,3.708,4.782,0.701544,0,51.55,59.14,33.68,35.48
"2016-12-12 23:00:00",266023,0.906,155.7,2.559,59,0,0,869.8635,0,6.622,3.099,183,3.734,4.794,0.6901677,0,51.55,59.08,33.68,35.47
"2016-12-12 23:10:00",266024,0.703,151.3,2.578,60.94,0,0,869.8077,0,6.624,3.099,185,3.74,4.805,0.6825806,0,51.55,59.08,33.68,35.47
"2016-12-12 23:20:00",266025,0.428,148.7,2.407,63.57,0,0,869.82,0,6.823,3.098,180,3.735,4.818,0.811505,0,51.55,59.08,33.68,35.47
"2016-12-12 23:30:00",266026,0.343,72.11,2.369,64.97,0,0,869.8396,0,6.65,3.1,180,3.73,4.814,1.190693,0,51.55,59.08,33.68,35.47
"2016-12-12 23:40:00",266027,0.39,129.3,2.218,66.58,0,0,869.622,0,6.573,3.102,189,3.74,4.815,1.202049,0,51.55,59.08,33.68,35.47
"2016-12-12 23:50:00",266028,0.629,127.7,2.159,68.2,0,0,869.5182,0,6.735,3.1,193,3.746,4.799,1.361259,0,51.55,59.14,33.68,35.48
